Location: Dugenta
(41.1333°N, 14.4500°E)
Time: 15:02:06
(UTC+00:00)

Cosmos 2219 Rocket - Pass Details

Date: 03 March 2021
Orbit: 826 x 848 km, 71.0° (Epoch: 13 April)

Event Time Altitude Azimuth Distance (km) Brightness Sun altitude
Rises 17:40:29 0° 160° (SSE) 3,350 5.1 -9.3°
Reaches altitude 10° 17:43:35 10° 143° (SE) 2,424 4.2 -9.8°
Maximum altitude 17:47:20 19° 100° (E) 1,886 3.4 -10.6°
Drops below altitude 10° 17:51:07 10° 57° (ENE) 2,441 4.1 -11.3°
Enters shadow 17:53:47 - 42° (NE) 3,238 4.9 -11.8°
